Regional Weather Roundup
Issued by NWS

Home | Current Version | Previous Version | Graphics & Text | Print | Product List | Glossary On
Versions: 1 2 3 4 5 6 7 8 9 10 11 12 13 14 15 16 17 18 19 20 21 22 23 24 25 26 27 28 29 30 31 32 33 34 35 36 37 38 39 40 41 42 43 44 45 46 47 48 49 50
000
ASUS45 KSLC 061710
RWRUT

UTAH REGIONAL WEATHER ROUNDUP
NATIONAL WEATHER SERVICE SALT LAKE CITY UT
1100 AM MDT WED MAY 06 2015

UTZ001>011-023>025-061800-

NORTHERN UTAH

CITY           SKY/WX    TMP DP  RH WIND       PRES   REMARKS
DUGWAY         MOSUNNY   61  50  67 S12       29.80
HILL AFB       PTSUNNY   59  48  66 VRB5      29.80F
LOGAN          MOSUNNY   57  45  64 VRB5      29.79F
OGDEN          CLOUDY    61  46  57 VRB3      29.78F
PROVO AIRPORT  NOT AVBL
SALT LAKE CITY PTSUNNY   62  46  55 SE10      29.78F
VERNAL         CLOUDY    51  41  68 W9        29.82S
WENDOVER       PTSUNNY   61  45  55 E10       29.78F
HEBER CITY     PTSUNNY   55  43  62 CALM      29.83F
WEST JORDAN    SUNNY     61  52  72 SE14      29.81F

$$

UTZ012>022-026-027-061800-

SOUTHERN/CENTRAL UTAH

CITY           SKY/WX    TMP DP  RH WIND       PRES   REMARKS
BLANDING       CLOUDY    55  46  71 SW7       29.97S
BRYCE CANYON   PTSUNNY   51  36  56 SW13      29.95F
CEDAR CITY     MOSUNNY   58  43  57 SW17G24   29.86F
DELTA          CLOUDY    55  47  75 S12       29.84S
HANKSVILLE     CLOUDY    63  45  51 W10G16    29.83S
MILFORD        CLOUDY    56  44  64 S14       29.84F
MOAB/CYNLANDS  PTSUNNY   62  49  62 W13       29.78F
PRICE          CLOUDY    55  43  63 S3        29.83F
ST GEORGE      PTSUNNY   66  46  48 NE3       29.83F
KANAB          PTSUNNY   57  43  58 S9        29.93F

$$

REGIONAL REPORTS     COLORADO/ARIZONA

CITY           SKY/WX    TMP DP  RH WIND       PRES   REMARKS
CRAIG, CO      LGT RAIN  49  45  86 SW12      29.83R FOG
GRAND JUNCTION CLOUDY    61  50  67 VRB6      29.79F
RIFLE          LGT RAIN  50  46  86 E7        29.85S
MONTROSE       LGT RAIN  58  44  60 SW12      29.86F
CORTEZ         CLOUDY    55  44  66 W6        29.93S
PAGE, AZ       MOSUNNY   64  45  49 E3        29.86F
GRAND CANYON   PTSUNNY   56  35  45 SW13      29.97S
KINGMAN        MOSUNNY   72  36  26 SW16G23   29.84S
FLAGSTAFF      PTSUNNY   50  33  52 SW16      29.99S

$$

REGIONAL REPORTS    NEVADA/IDAHO/WYOMING

CITY           SKY/WX    TMP DP  RH WIND       PRES   REMARKS
LAS VEGAS, NV  PTSUNNY   74  38  27 S9        29.72F
ELY            CLOUDY    51  39  63 S17       29.86F
ELKO           PTSUNNY   54  27  35 CALM      29.79F
POCATELLO, ID  MOSUNNY   53  24  32 W12       29.84F
BURLEY         PTSUNNY   51  28  41 NW12      29.83F
EVANSTON, WY   CLOUDY    51  39  63 W8        29.86F
ROCK SPRINGS   PTSUNNY   55  37  50 W12       29.81F
KEMMERER       PTSUNNY   52  32  46 NW9       29.85F

$$



USA.gov is the U.S. government's official web portal to all federal, state and local government web resources and services.